KORSAT-3 (63630 NORAD) Tracking and Keplerian Element Data

This shows tracking and keplerian element data for the satellite.

Feedback or suggestion? Click here.




ElementValue
Catalog63630
NameKORSAT-3
Epoch Orbit3633
Epoch Day354.26234383
Epoch Year2025
RAAN183.7162
Inclination45.4092
Eccentricity0.001049
Argument of Perigee325.4732
Mean Anonmoly34.5464
Mean Motion14.98733866
Decay Rate1.781E-05
L11 63630U 25081A 25354.26234383 .00001781 00000+0 16451-3 0 9990
L22 63630 45.4092 183.7162 0010490 325.4732 34.5464 14.98733866 36338



Live tracking and technical data element details for KORSAT-3 (NORAD 63630). KORSAT-3 can be tracked NOW for your location showing map with azimuth and elevation plus other details from your city location.







IsCatalogInMostPopularTable: catalog: 63630, numindb: 6
Update: records affected: 1



GetName: 63630 KORSAT-3

Hit Count: updated at: Mon, 20 Apr 2026 10:11:05 GMT